Regional Weather Roundup
Issued by NWS Northern Indiana

Home | Current Version | Previous Version | Graphics & Text | Print | Product List | Glossary On
Versions: 1 2 3 4 5 6 7 8 9 10 11 12 13 14 15 16 17 18 19 20 21 22 23 24 25 26 27 28 29 30 31 32 33 34 35 36 37 38 39 40 41 42 43 44 45 46 47 48 49 50
000
ASUS43 KIWX 210101
RWRIWX

KIWX WEATHER ROUNDUP
NATIONAL WEATHER SERVICE NORTHERN INDIANA
900 PM EDT FRI OCT 20 2017

NOTE: "FAIR" INDICATES FEW OR NO CLOUDS BELOW 12,000 FEET WITH NO
SIGNIFICANT WEATHER AND/OR OBSTRUCTIONS TO VISIBILITY.

* THESE STATIONS ARE NOT UNDER NWS QUALITY CONTROL. THEY ALSO MAY NOT
  REPORT WEATHER SUCH AS PRECIPITATION OR FOG.

INZ001>027-210200-
NORTHERN INDIANA

CITY           SKY/WX    TMP DP  RH WIND       PRES   REMARKS
GARY*          MOCLDY    68  48  49 VRB5      30.08S
MICHIGAN CITY* CLEAR     64  48  55 S7        30.10S
LAPORTE*       CLEAR     64  49  58 S6        30.11S
KNOX*          PTCLDY    57  48  72 S6        30.11F
SOUTH BEND     CLEAR     63  51  65 S7        30.12S
ELKHART*       CLEAR     63  50  63 CALM      30.12S
GOSHEN         CLEAR     62  48  60 S7        30.13S
MONTICELLO*    PTCLDY    63  50  61 S3        30.12S
WARSAW*        CLEAR     59  50  72 CALM      30.13F
AUBURN*        CLEAR     57  50  77 CALM      30.15F
FORT WAYNE     PTCLDY    60  49  66 S7        30.15F
PERU/GRISSOM   CLEAR     60  49  68 S7        30.13F

$$
INZ028>050-210200-
CENTRAL INDIANA

CITY           SKY/WX    TMP DP  RH WIND       PRES   REMARKS
LAFAYETTE      CLOUDY    59  50  72 CALM      30.12S
KOKOMO*        CLEAR     58  50  75 S5        30.15F
MUNCIE*        CLEAR     62  47  57 S3        30.17S
INDIANAPOLIS   PTCLDY    63  51  65 SE9       30.15S

$$
MIZ043>046-050>051-056>058-064>065-071>073-077>080-210200-
SOUTHWEST LOWER MICHIGAN

CITY           SKY/WX    TMP DP  RH WIND       PRES   REMARKS
BATTLE CREEK   CLEAR     62  52  69 S7        30.12F
BENTON HARBOR  CLEAR     65  49  56 S6        30.09S
COLDWATER*     CLEAR     61  51  70 S5        30.13F
HILLSDALE*     CLEAR     61  50  67 S5        30.15S
HOLLAND        CLEAR     61  50  67 S6        30.09S
GRAND RAPIDS   CLOUDY    63  53  70 S9        30.09S
KALAMAZOO      CLEAR     62  49  62 S6        30.12F
STURGIS*       CLEAR     60  51  73 S3        30.13S
THREE RIVERS*  FAIR      63  52  67 S6        30.12S

$$
OHZ001>008-015>018-024>025-210200-
NORTHWEST OHIO

CITY           SKY/WX    TMP DP  RH WIND       PRES   REMARKS
DEFIANCE       CLEAR     66  50  56 S6        30.16R
FINDLAY        CLEAR     60  45  57 S8        30.17S
TOLEDO EXPRESS CLEAR     56  54  93 SE5       30.15F
TOLEDO METCALF CLEAR     60  45  57 S3        30.17S
LIMA           CLEAR     60  50  69 SE7       30.18F

$$
AND FOR LAKE MICHIGAN COASTAL AND OPEN LAKE BUOY OBSERVATIONS

STATION/POSITION TEMP    WIND        PRES    VSBY  WAVE
                 AIR SEA DIR/SP/G                  HT/PER
                 (F)     (DEG/KT/KT) (MB)    (MI)  (FT/S)
CALUMET HARBOR    71     160/  8/ 10 1017.4
MICHIGAN CITY     69     160/  9/ 14   N/A
BURNS HARBOR      70     180/  9/ 16 1019.0S
SAINT JOSEPH      69     170/  2/  5 1020.0
SOUTH LAKE BUOY   65 61  150/ 12/ 14 1017.6          2/ 4
4 MI NW BRIDGMAN  63 59  190/  6/  8 1019.0R         1
MICHIGAN CITY     65 59  180/  8/ 10   N/A           1

$$
&&



USA.gov is the U.S. government's official web portal to all federal, state and local government web resources and services.